EVERETT DAM ON PISCATAOUOG R: From 06/27/2020 16:00 to 07/11/2020 22:00

Date LAKE ELEVATION [FT] PRECIPITATION INCREMENT [IN] RESERVOIR RELEASES [CFS] TAILWATER STAGE [FT]
07/11/2020 13:00 -- 0.00 -- --
07/11/2020 12:00 340.37 0.06 -- 4.88
07/11/2020 11:00 340.37 0.01 -- 4.87
07/11/2020 10:00 340.34 0.00 -- 4.86
07/11/2020 09:00 340.37 0.00 16.7 4.86
07/11/2020 08:00 340.34 0.00 16.7 4.86
07/11/2020 07:00 340.34 0.00 16.7 4.86
07/11/2020 06:00 340.37 0.00 16.7 4.86
07/11/2020 05:00 340.37 0.01 16.7 4.86
07/11/2020 04:00 340.37 0.01 17.4 4.87
07/11/2020 03:00 340.37 0.02 17.4 4.87
07/11/2020 02:00 340.37 0.02 17.4 4.87
07/11/2020 01:00 340.37 0.00 16.7 4.86
07/11/2020 00:00 340.37 0.00 17.4 4.87
07/10/2020 23:00 340.37 0.00 17.4 4.87
07/10/2020 22:00 340.37 0.03 17.4 4.87
07/10/2020 21:00 340.37 0.00 17.4 4.87
07/10/2020 20:00 340.37 0.00 17.4 4.87
07/10/2020 19:00 340.37 0.01 17.4 4.87
07/10/2020 18:00 340.37 0.00 18.1 4.88
07/10/2020 17:00 340.37 0.00 18.1 4.88
07/10/2020 16:00 340.37 0.00 18.1 4.88
07/10/2020 15:00 340.37 0.00 18.1 4.88
07/10/2020 14:00 340.37 0.00 18.1 4.88
07/10/2020 13:00 340.37 0.00 18.1 4.88
07/10/2020 12:00 340.37 0.00 18.1 4.88
07/10/2020 11:00 340.37 0.00 18.1 4.88
07/10/2020 10:00 340.37 0.00 18.9 4.89
07/10/2020 09:00 340.37 0.00 18.9 4.89
07/10/2020 08:00 340.37 0.00 18.9 4.89
07/10/2020 07:00 340.37 0.00 18.9 4.89
07/10/2020 06:00 340.40 0.00 19.5 4.90
07/10/2020 05:00 340.40 0.00 19.5 4.90
07/10/2020 04:00 340.40 0.00 19.5 4.90
07/10/2020 03:00 340.40 0.00 19.5 4.90
07/10/2020 02:00 340.40 0.00 20.2 4.91
07/10/2020 01:00 340.40 0.00 20.2 4.91
07/10/2020 00:00 340.40 0.00 20.2 4.91
07/09/2020 23:00 340.40 0.00 20.2 4.91
07/09/2020 22:00 340.40 0.00 20.2 4.91
07/09/2020 21:00 340.40 0.00 20.2 4.91
07/09/2020 20:00 340.40 0.00 20.9 4.92
07/09/2020 19:00 340.40 0.00 20.9 4.92
07/09/2020 18:00 340.40 0.00 20.9 4.92
07/09/2020 17:00 340.40 0.00 20.9 4.92
07/09/2020 16:00 340.43 0.00 20.9 4.92
07/09/2020 15:00 340.43 0.00 21.6 4.93
07/09/2020 14:00 340.43 0.00 21.6 4.93
07/09/2020 13:00 340.43 0.00 21.6 4.93
07/09/2020 12:00 340.43 0.00 21.6 4.93
07/09/2020 11:00 340.43 0.00 21.6 4.93
07/09/2020 10:00 340.43 0.00 21.6 4.93
07/09/2020 09:00 340.43 0.00 21.6 4.93
07/09/2020 08:00 340.43 0.00 22.3 4.94
07/09/2020 07:00 340.43 0.00 22.3 4.94
07/09/2020 06:00 340.43 0.00 22.3 4.94
07/09/2020 05:00 340.43 0.00 22.3 4.94
07/09/2020 04:00 340.43 0.00 23.1 4.95
07/09/2020 03:00 340.46 0.00 23.1 4.95
07/09/2020 02:00 340.46 0.00 23.1 4.95
07/09/2020 01:00 340.46 0.00 23.8 4.96
07/09/2020 00:00 340.46 0.00 23.8 4.96
07/08/2020 23:00 340.46 0.00 23.8 4.96
07/08/2020 22:00 340.46 0.00 23.8 4.96
07/08/2020 21:00 340.46 0.00 23.8 4.96
07/08/2020 20:00 340.46 0.00 23.8 4.96
07/08/2020 19:00 340.46 0.00 24.6 4.97
07/08/2020 18:00 340.46 0.00 24.6 4.97
07/08/2020 17:00 340.46 0.00 24.6 4.97
07/08/2020 16:00 340.46 0.00 24.6 4.97
07/08/2020 15:00 340.46 0.00 24.6 4.97
07/08/2020 14:00 340.46 0.00 -- --
07/08/2020 13:00 340.46 0.00 -- --
07/08/2020 12:00 340.46 0.00 25.3 4.98
07/08/2020 11:00 340.46 0.00 24.6 4.97
07/08/2020 10:00 340.46 0.00 25.3 4.98
07/08/2020 09:00 340.49 0.00 -- --
07/08/2020 08:00 340.49 0.00 25.3 4.98
07/08/2020 07:00 340.49 0.00 25.3 4.98
07/08/2020 06:00 340.49 0.00 26.1 4.99
07/08/2020 05:00 340.49 0.00 26.1 4.99
07/08/2020 04:00 340.49 0.00 26.1 4.99
07/08/2020 03:00 340.49 0.00 26.9 5.00
07/08/2020 02:00 340.49 0.00 26.9 5.00
07/08/2020 01:00 340.49 0.00 26.9 5.00
07/08/2020 00:00 340.49 0.00 26.9 5.00
07/07/2020 23:00 340.52 0.00 27.7 5.01
07/07/2020 22:00 340.52 0.00 27.7 5.01
07/07/2020 21:00 340.52 0.00 27.7 5.01
07/07/2020 20:00 340.52 0.00 28.5 5.02
07/07/2020 19:00 340.52 0.00 28.5 5.02
07/07/2020 18:00 340.52 0.00 28.5 5.02
07/07/2020 17:00 340.52 0.00 29.4 5.03
07/07/2020 16:00 340.52 0.00 29.4 5.03
07/07/2020 15:00 340.52 0.00 29.4 5.03
07/07/2020 14:00 340.52 0.00 29.4 5.03
07/07/2020 13:00 340.52 0.00 30.2 5.04
07/07/2020 12:00 340.52 0.00 30.2 5.04
07/07/2020 11:00 340.55 0.00 30.2 5.04
07/07/2020 10:00 340.55 0.00 30.2 5.04
07/07/2020 09:00 340.55 0.00 30.2 5.04
07/07/2020 08:00 340.55 0.00 30.2 5.04
07/07/2020 07:00 340.55 0.00 30.2 5.04
07/07/2020 06:00 340.55 0.00 31.1 5.05
07/07/2020 05:00 340.55 0.00 31.1 5.05
07/07/2020 04:00 340.55 0.00 32.0 5.06
07/07/2020 03:00 340.58 0.00 32.0 5.06
07/07/2020 02:00 340.58 0.00 32.9 5.07
07/07/2020 01:00 340.58 0.00 32.9 5.07
07/07/2020 00:00 340.58 0.00 33.8 5.08
07/06/2020 23:00 340.58 0.00 33.8 5.08
07/06/2020 22:00 340.58 0.00 34.7 5.09
07/06/2020 21:00 340.58 0.00 34.7 5.09
07/06/2020 20:00 340.61 0.00 34.7 5.09
07/06/2020 19:00 340.61 0.00 35.7 5.10
07/06/2020 18:00 340.61 0.00 35.7 5.10
07/06/2020 17:00 340.61 0.00 35.7 5.10
07/06/2020 16:00 340.61 0.00 36.6 5.11
07/06/2020 15:00 340.61 0.00 36.6 5.11
07/06/2020 14:00 340.61 0.00 36.6 5.11
07/06/2020 13:00 340.61 0.00 36.6 5.11
07/06/2020 12:00 340.61 0.00 37.6 5.12
07/06/2020 11:00 340.61 0.00 37.6 5.12
07/06/2020 10:00 340.61 0.00 37.6 5.12
07/06/2020 09:00 340.61 0.00 38.6 5.13
07/06/2020 08:00 340.64 0.00 38.6 5.13
07/06/2020 07:00 340.64 0.00 38.6 5.13
07/06/2020 06:00 340.64 0.00 38.6 5.13
07/06/2020 05:00 340.64 0.00 38.6 5.13
07/06/2020 04:00 340.64 0.00 39.6 5.14
07/06/2020 03:00 340.64 0.00 39.6 5.14
07/06/2020 02:00 340.64 0.00 40.6 5.15
07/06/2020 01:00 340.67 0.00 40.6 5.15
07/06/2020 00:00 340.67 0.00 40.6 5.15
07/05/2020 23:00 340.67 0.00 40.6 5.15
07/05/2020 22:00 340.67 0.00 41.7 5.16
07/05/2020 21:00 340.67 0.00 41.7 5.16
07/05/2020 20:00 340.67 0.00 42.7 5.17
07/05/2020 19:00 340.67 0.00 43.8 5.18
07/05/2020 18:00 340.67 0.03 43.8 5.18
07/05/2020 17:00 340.67 0.00 43.8 5.18
07/05/2020 16:00 340.67 0.00 43.8 5.18
07/05/2020 15:00 340.67 0.00 44.9 5.19
07/05/2020 14:00 340.70 0.00 44.9 5.19
07/05/2020 13:00 340.70 0.00 46.0 5.20
07/05/2020 12:00 340.70 0.00 46.0 5.20
07/05/2020 11:00 340.70 0.00 47.2 5.21
07/05/2020 10:00 340.73 0.00 47.2 5.21
07/05/2020 09:00 340.73 0.00 48.4 5.22
07/05/2020 08:00 340.73 0.00 49.6 5.23
07/05/2020 07:00 340.73 0.00 49.6 5.23
07/05/2020 06:00 340.73 0.00 50.8 5.24
07/05/2020 05:00 340.76 0.00 50.8 5.24
07/05/2020 04:00 340.76 0.00 52.0 5.25
07/05/2020 03:00 340.76 0.00 52.0 5.25
07/05/2020 02:00 340.79 0.00 53.3 5.26
07/05/2020 01:00 340.79 0.00 54.5 5.27
07/05/2020 00:00 340.79 0.00 55.8 5.28
07/04/2020 23:00 340.79 0.00 55.8 5.28
07/04/2020 22:00 340.79 0.00 57.1 5.29
07/04/2020 21:00 340.82 0.00 58.4 5.30
07/04/2020 20:00 340.82 0.00 59.8 5.31
07/04/2020 19:00 340.82 0.00 59.8 5.31
07/04/2020 18:00 340.85 0.00 61.1 5.32
07/04/2020 17:00 340.85 0.00 61.1 5.32
07/04/2020 16:00 340.85 0.00 62.5 5.33
07/04/2020 15:00 340.85 0.00 63.9 5.34
07/04/2020 14:00 340.85 0.00 65.3 5.35
07/04/2020 13:00 340.88 0.00 66.8 5.36
07/04/2020 12:00 340.88 0.00 68.2 5.37
07/04/2020 11:00 340.91 0.00 68.2 5.37
07/04/2020 10:00 340.91 0.00 69.8 5.38
07/04/2020 09:00 340.91 0.00 69.8 5.38
07/04/2020 08:00 340.91 0.00 71.4 5.39
07/04/2020 07:00 340.94 0.00 73.1 5.40
07/04/2020 06:00 340.94 0.00 73.1 5.40
07/04/2020 05:00 340.94 0.00 74.8 5.41
07/04/2020 04:00 340.97 0.00 76.5 5.42
07/04/2020 03:00 340.97 0.00 76.5 5.42
07/04/2020 02:00 340.97 0.00 78.3 5.43
07/04/2020 01:00 341.00 0.00 80.0 5.44
07/04/2020 00:00 341.00 0.00 81.8 5.45
07/03/2020 23:00 341.03 0.00 83.6 5.46
07/03/2020 22:00 341.03 0.00 85.4 5.47
07/03/2020 21:00 341.03 0.00 87.3 5.48
07/03/2020 20:00 341.06 0.00 87.3 5.48
07/03/2020 19:00 341.06 0.00 91.2 5.50
07/03/2020 18:00 341.06 0.00 91.2 5.50
07/03/2020 17:00 341.09 0.00 93.2 5.51
07/03/2020 16:00 341.09 0.00 95.2 5.52
07/03/2020 15:00 341.09 0.00 97.2 5.53
07/03/2020 14:00 341.12 0.00 99.2 5.54
07/03/2020 13:00 341.12 0.00 99.2 5.54
07/03/2020 12:00 341.15 0.00 103.3 5.56
07/03/2020 11:00 341.15 0.00 105.4 5.57
07/03/2020 10:00 341.15 0.00 107.5 5.58
07/03/2020 09:00 341.18 0.00 109.6 5.59
07/03/2020 08:00 341.18 0.00 105.4 5.57
07/03/2020 07:00 341.21 0.00 113.9 5.61
07/03/2020 06:00 341.21 0.00 113.9 5.61
07/03/2020 05:00 341.24 0.00 118.3 5.63
07/03/2020 04:00 341.24 0.00 120.6 5.64
07/03/2020 03:00 341.27 0.00 120.6 5.64
07/03/2020 02:00 341.27 0.00 125.1 5.66
07/03/2020 01:00 341.30 0.00 127.3 5.67
07/03/2020 00:00 341.30 0.00 129.7 5.68
07/02/2020 23:00 341.33 0.00 132.0 5.69
07/02/2020 22:00 341.33 0.00 134.3 5.70
07/02/2020 21:00 341.33 0.00 136.7 5.71
07/02/2020 20:00 341.36 0.00 136.7 5.71
07/02/2020 19:00 341.39 0.00 141.5 5.73
07/02/2020 18:00 341.39 0.00 146.4 5.75
07/02/2020 17:00 341.42 0.00 146.4 5.75
07/02/2020 16:00 341.42 0.00 151.3 5.77
07/02/2020 15:00 341.42 0.01 -- --
07/02/2020 14:00 341.45 0.00 156.3 5.79
07/02/2020 13:00 341.45 0.00 158.9 5.80
07/02/2020 12:00 341.48 0.00 161.4 5.81
07/02/2020 11:00 341.51 0.00 164.0 5.82
07/02/2020 10:00 341.51 0.00 166.6 5.83
07/02/2020 09:00 341.51 0.00 171.9 5.85
07/02/2020 08:00 341.54 0.00 171.9 5.85
07/02/2020 07:00 341.57 0.00 171.9 5.85
07/02/2020 06:00 341.57 0.00 -- --
07/02/2020 05:00 341.57 0.00 177.3 5.87
07/02/2020 04:00 341.60 0.00 179.9 5.88
07/02/2020 03:00 341.60 0.00 182.7 5.89
07/02/2020 02:00 341.63 0.00 182.7 5.89
07/02/2020 01:00 341.63 0.00 185.4 5.90
07/02/2020 00:00 341.63 0.00 185.4 5.90
07/01/2020 23:00 341.66 0.00 188.2 5.91
07/01/2020 22:00 341.66 0.00 188.2 5.91
07/01/2020 21:00 341.66 0.00 190.9 5.92
07/01/2020 20:00 341.66 0.00 190.9 5.92
07/01/2020 19:00 341.66 0.00 190.9 5.92
07/01/2020 18:00 341.66 0.00 193.8 5.93
07/01/2020 17:00 341.66 0.00 190.9 5.92
07/01/2020 16:00 341.66 0.01 188.2 5.91
07/01/2020 15:00 341.66 0.00 190.9 5.92
07/01/2020 14:00 341.63 0.00 188.2 5.91
07/01/2020 13:00 341.63 0.00 188.2 5.91
07/01/2020 12:00 341.63 0.00 188.2 5.91
07/01/2020 11:00 341.63 0.00 179.9 5.88
07/01/2020 10:00 341.60 0.00 179.9 5.88
07/01/2020 09:00 341.57 0.00 174.6 5.86
07/01/2020 08:00 341.54 0.00 169.3 5.84
07/01/2020 07:00 341.51 0.00 166.6 5.83
07/01/2020 06:00 341.48 0.00 158.9 5.80
07/01/2020 05:00 341.45 0.00 151.3 5.77
07/01/2020 04:00 341.39 0.00 143.9 5.74
07/01/2020 03:00 341.33 0.00 136.7 5.71
07/01/2020 02:00 341.27 0.00 132.0 5.69
07/01/2020 01:00 341.21 0.00 116.1 5.62
07/01/2020 00:00 341.15 0.00 103.3 5.56
06/30/2020 23:00 341.09 0.01 93.2 5.51
06/30/2020 22:00 341.03 0.02 83.6 5.46
06/30/2020 21:00 340.97 0.06 74.8 5.41
06/30/2020 20:00 340.88 0.03 65.3 5.35
06/30/2020 19:00 340.82 0.05 58.4 5.30
06/30/2020 18:00 340.79 0.04 55.8 5.28
06/30/2020 17:00 340.79 0.06 53.3 5.26
06/30/2020 16:00 340.76 0.09 52.0 5.25
06/30/2020 15:00 340.76 0.10 49.6 5.23
06/30/2020 14:00 340.73 0.03 49.6 5.23
06/30/2020 13:00 340.73 0.00 48.4 5.22
06/30/2020 12:00 340.73 0.00 48.4 5.22
06/30/2020 11:00 340.73 0.06 48.4 5.22
06/30/2020 10:00 340.73 0.00 47.2 5.21
06/30/2020 09:00 340.73 0.00 47.2 5.21
06/30/2020 08:00 340.73 0.00 47.2 5.21
06/30/2020 07:00 340.73 0.02 47.2 5.21
06/30/2020 06:00 340.73 0.02 47.2 5.21
06/30/2020 05:00 340.73 0.00 47.2 5.21
06/30/2020 04:00 340.73 0.00 47.2 5.21
06/30/2020 03:00 340.73 0.00 46.0 5.20
06/30/2020 02:00 340.73 0.00 46.0 5.20
06/30/2020 01:00 340.73 0.00 46.0 5.20
06/30/2020 00:00 340.73 0.00 46.0 5.20
06/29/2020 23:00 340.70 0.00 44.9 5.19
06/29/2020 22:00 340.70 0.00 44.9 5.19
06/29/2020 21:00 340.70 0.00 44.9 5.19
06/29/2020 20:00 340.70 0.00 44.9 5.19
06/29/2020 19:00 340.70 0.00 43.8 5.18
06/29/2020 18:00 340.70 0.02 43.8 5.18
06/29/2020 17:00 340.67 0.00 42.7 5.17
06/29/2020 16:00 340.67 0.01 41.7 5.16
06/29/2020 15:00 340.67 0.01 40.6 5.15
06/29/2020 14:00 340.64 0.01 39.6 5.14
06/29/2020 13:00 340.64 0.00 38.6 5.13
06/29/2020 12:00 340.64 0.00 -- --
06/29/2020 11:00 340.61 0.00 37.6 5.12
06/29/2020 10:00 340.61 0.00 -- --
06/29/2020 09:00 340.61 0.00 36.6 5.11
06/29/2020 08:00 340.61 0.00 34.7 5.09
06/29/2020 07:00 340.58 0.00 -- --
06/29/2020 06:00 340.58 0.00 32.0 5.06
06/29/2020 05:00 340.55 0.00 31.1 5.05
06/29/2020 04:00 340.55 0.00 29.4 5.03
06/29/2020 03:00 340.52 0.00 27.7 5.01
06/29/2020 02:00 340.49 0.00 25.3 4.98
06/29/2020 01:00 340.49 0.00 23.1 4.95
06/29/2020 00:00 340.43 0.00 20.9 4.92
06/28/2020 23:00 340.40 0.00 18.1 4.88
06/28/2020 22:00 340.37 0.00 15.4 4.84
06/28/2020 21:00 340.34 0.00 -- --
06/28/2020 20:00 340.31 0.03 -- --
06/28/2020 19:00 340.31 0.21 12.4 4.79
06/28/2020 18:00 340.28 0.60 11.1 4.76
06/28/2020 17:00 340.19 0.05 7.9 4.68
06/28/2020 16:00 340.19 0.08 7.6 4.67
06/28/2020 15:00 340.19 0.10 -- --
06/28/2020 14:00 340.10 0.00 -- --
06/28/2020 13:00 340.13 0.00 -- --
06/28/2020 12:00 340.13 0.00 -- --
06/28/2020 11:00 340.13 0.00 -- --
06/28/2020 10:00 340.13 0.00 -- --
06/28/2020 09:00 340.13 0.00 -- --
06/28/2020 08:00 340.13 0.00 -- --
06/28/2020 07:00 340.13 0.00 -- --
06/28/2020 06:00 340.13 0.00 -- --
06/28/2020 05:00 340.13 0.00 -- --
06/28/2020 04:00 340.13 0.00 5.6 4.60
06/28/2020 03:00 340.13 0.00 -- --
06/28/2020 02:00 340.13 0.00 5.9 4.61
06/28/2020 01:00 340.13 0.00 5.9 4.61
06/28/2020 00:00 340.13 0.00 5.9 4.61
06/27/2020 23:00 340.13 0.00 5.9 4.61
06/27/2020 22:00 340.13 0.00 5.9 4.61
06/27/2020 21:00 340.13 0.00 5.9 4.61
06/27/2020 20:00 340.13 0.00 5.9 4.61
06/27/2020 19:00 340.13 0.00 5.9 4.61
06/27/2020 18:00 340.13 0.00 5.9 4.61
06/27/2020 17:00 -- -- -- --
06/27/2020 16:00 -- -- -- --